Home   Weather   Exeter   Past weeks

Flag for United Kingdom Past Weather in Exeter, England, United Kingdom — Yesterday and Last 2 Weeks

Now
54 °F

Passing clouds.


Feels Like: 50 °F
Forecast: 37 / 51 °F
Wind: 10 mph from Northwest

Location: Exeter Airport

Current Time: Apr 24, 2017 at 10:42:52 am

Latest Report: Apr 24, 2017 at 10:20 am


Visibility: N/A

Pressure: 30.07 "Hg

Humidity: 72%

Dew Point: 45 °F

Location of ExeterLocation

Past Weather in Exeter — Graph

°F

Exeter Temperature Yesterday

Maximum temperature yesterday: 59 °F (at 1:20 pm)
Minimum temperature yesterday: 36 °F (at 5:20 am)
Average temperature yesterday: 50 °F

High & Low Weather Summary for the Past Weeks

 TemperatureHumidityPressure
High68 °F (Apr 9, 2:50 pm)100% (Apr 10, 2:20 am)30.63 "Hg (Apr 10, 2:20 am)
Low34 °F (Apr 14, 5:50 am)35% (Apr 18, 3:50 pm)30.04 "Hg (Apr 14, 3:50 pm)
Average50 °F74%30.31 "Hg
* Reported Apr 9 9:20 am — Apr 24 9:20 am, Exeter, Weather by CustomWeather, © 2017

Note: Actual official high and low records may vary slightly from our data, if they occured in-between our weather recording intervals... More about our weather records

Advertising

Exeter Weather History for the Previous 24 Hours

Scroll right to see more
 ConditionsComfort  
Time TempWeatherWind HumidityBarometerVisibility
9:20 am
Mon, Apr 24
46 °FPassing clouds.3 mph100%30.09 "HgN/A
8:50 am43 °FPassing clouds.2 mph100%30.09 "HgN/A
8:20 am41 °FPassing clouds.2 mph100%30.09 "Hg3 mi
7:50 am39 °FFog.1 mph100%30.12 "Hg1 mi
7:20 am37 °FFog.2 mph93%30.12 "Hg1 mi
6:50 am36 °FFog.3 mph93%30.12 "Hg0 mi
6:20 am36 °FFog.1 mph93%30.12 "HgN/A
5:50 am37 °FClear.2 mph93%30.12 "Hg10 mi
2:50 am39 °FClear.2 mph93%30.15 "Hg10 mi
2:20 am41 °FClear.3 mph87%30.18 "Hg10 mi
1:50 am41 °FClear.2 mph93%30.18 "Hg10 mi
1:20 am43 °FClear.2 mph87%30.18 "Hg10 mi
12:50 am43 °FClear.1 mph87%30.18 "Hg10 mi
12:20 am45 °FClear.1 mph87%30.21 "Hg10 mi
11:50 pm
Sun, Apr 23
45 °FClear.3 mph87%30.21 "Hg10 mi
11:20 pm45 °FClear.3 mph87%30.21 "Hg10 mi
10:50 pm46 °FClear.5 mph82%30.21 "Hg10 mi
9:50 pm48 °FClear.3 mph82%30.21 "Hg10 mi
9:20 pm50 °FClear.5 mph82%30.21 "Hg10 mi
8:50 pm52 °FClear.3 mph88%30.21 "Hg10 mi
8:20 pm54 °FSunny.2 mph82%30.21 "Hg10 mi
7:50 pm54 °FPassing clouds.3 mph82%30.21 "HgN/A
7:20 pm54 °FPassing clouds.3 mph82%30.24 "HgN/A
6:50 pm54 °FPassing clouds.6 mph82%30.24 "HgN/A
6:20 pm54 °FScattered clouds.7 mph82%30.24 "HgN/A
5:50 pm54 °FScattered clouds.8 mph82%30.24 "HgN/A
5:20 pm54 °FScattered clouds.7 mph82%30.24 "HgN/A
4:50 pm54 °FScattered clouds.8 mph77%30.24 "HgN/A
4:20 pm54 °FScattered clouds.9 mph77%30.27 "HgN/A
3:50 pm54 °FScattered clouds.12 mph77%30.27 "HgN/A
3:20 pm55 °FPassing clouds.12 mph67%30.27 "HgN/A
2:50 pm59 °FPassing clouds.10 mph55%30.27 "HgN/A
2:20 pm59 °FPassing clouds.5 mph51%30.27 "HgN/A
1:50 pm59 °FPassing clouds.6 mph51%30.30 "HgN/A
1:20 pm59 °FPassing clouds.7 mph55%30.30 "HgN/A
12:50 pm57 °FPassing clouds.5 mph55%30.30 "HgN/A
12:20 pm57 °FPassing clouds.5 mph55%30.33 "HgN/A
11:50 am55 °FPassing clouds.2 mph59%30.33 "HgN/A
11:20 am55 °FPassing clouds.3 mph55%30.33 "HgN/A
10:50 am54 °FPassing clouds.2 mph58%30.33 "HgN/A
10:20 am50 °FPassing clouds.3 mph71%30.33 "HgN/A
Weather by CustomWeather, © 2017

See weather overviewHow to use our weather pages